(511) Davida
ephemeris date magn radius delta ra dec elong phase
Today10 May 202511.82.564 AU3.419 AU05h02m+18°22'27.3°10.4°
Opposition23 Feb 202610.62.875 AU1.917 AU10h54m+26°22'162.1°6.1°
(511) Davida - 2025-05-10
astro.vanbuitenen.nl


 
-1 year
-1 month
-1 day
Now
+1 day
+1 month
+1 year

The interactive orbit chart above shows the body's path through the solar system and its position at the given date. Green and blue lines are shown perpendicular to the ecliptic plane: Green if the path is above the ecliptic plane, blue if it is below. (Left-click and drag to rotate the view; Right-click and drag to move the view; Use scroll wheel to zoom in our out.)

The orbital elements of Davida are:

            e (Eccentricity)                : 0.1898218
            a (Semimajor axis)              : 3.1650291
            i (Inclination)                 : 15.94716
            Ω (Longitude of ascending node) : 107.55661
            ω (Argument of perihelion)      : 336.86460
            M (Mean anomaly)                : 0.08266
            Epoch                           : 2025 May 05

            L (Longitude of perihelion)     : 85.22260
            B (Latitude of perihelion)      : -6.19722
            P (Orbital period in years)     : 5.63            
        

The light curve chart below shows the estimated development of the minor planet's magnitude.


The all-sky chart below shows the path of the minor planet over the same period as the light curve. The current position is marked yellow.





The following chart shows the path of the minor planet in the next few days. The field of view is optimized for (~10x50) binoculars and finderscopes. A more printer-friendly version of the same chart can be found below.




Ephemerides:
Date       Time       RA (2000)    DEC (2000)    delta   radius  elong  phase   PA    magn
2025-05-10 00:00 UT   05 02 10.9   +18 22 49     3.419    2.564   27.3   10.4    93   11.8 
2025-05-10 17:38 UT   05 03 31.3   +18 27 15     3.423    2.564   26.9   10.3    93   11.8 
2025-05-11 00:00 UT   05 04 00.3   +18 28 51     3.425    2.564   26.8   10.2    93   11.8 
2025-05-12 00:00 UT   05 05 50.1   +18 34 48     3.431    2.564   26.3   10.0    93   11.8 
2025-05-13 00:00 UT   05 07 40.0   +18 40 39     3.437    2.565   25.8    9.9    94   11.8 
2025-05-14 00:00 UT   05 09 30.3   +18 46 24     3.442    2.565   25.2    9.7    94   11.8 
2025-05-15 00:00 UT   05 11 20.8   +18 52 04     3.448    2.565   24.7    9.5    94   11.8 
2025-05-16 00:00 UT   05 13 11.5   +18 57 38     3.453    2.565   24.2    9.3    94   11.8 
2025-05-17 00:00 UT   05 15 02.5   +19 03 07     3.459    2.565   23.7    9.1    95   11.8 
2025-05-18 00:00 UT   05 16 53.8   +19 08 30     3.464    2.565   23.2    8.9    95   11.8 
2025-05-19 00:00 UT   05 18 45.2   +19 13 47     3.469    2.565   22.6    8.7    95   11.8 
2025-05-20 00:00 UT   05 20 36.9   +19 18 59     3.474    2.565   22.1    8.5    95   11.7 
2025-05-21 00:00 UT   05 22 28.8   +19 24 05     3.479    2.565   21.6    8.3    96   11.7 
2025-05-22 00:00 UT   05 24 21.0   +19 29 05     3.484    2.566   21.1    8.2    96   11.7 
2025-05-23 00:00 UT   05 26 13.3   +19 33 59     3.489    2.566   20.6    8.0    96   11.7 
2025-05-24 00:00 UT   05 28 05.9   +19 38 48     3.494    2.566   20.0    7.8    97   11.7 
2025-05-25 00:00 UT   05 29 58.7   +19 43 31     3.498    2.566   19.5    7.6    97   11.7 
2025-05-26 00:00 UT   05 31 51.6   +19 48 08     3.503    2.566   19.0    7.4    97   11.7 
2025-05-27 00:00 UT   05 33 44.8   +19 52 39     3.507    2.566   18.5    7.2    98   11.7 
2025-05-28 00:00 UT   05 35 38.2   +19 57 04     3.511    2.567   18.0    7.0    98   11.7 


    Terminology:
            
    delta:  distance between minor planet and earth in AU
    radius: distance between minor planet and sun in AU
    magn:   magnitude (brightness) estimate    
    ra:     right ascension in hours (24h = 360deg)
    dec:    declination in degrees
    elong:  elongation in degrees (angle sun-earth-minor planet)    
    phase:  phase angle in degrees (angle sun-minor planet-earth)        
    AU:     Astronomical Unit (mean distance between earth and sun: 149597870.7 km
    

Orbital elements provided by the MPC (Minor Planet Center).
Calculations by a modified version of AAPlus, a C# implementation of the AA+ project by PJ Naughter from the algorithms presented in the book "Astronomical Algorithms" by Jean Meeus.
NGC2000 dso catalog and star labels from VizieR as provided by the Strasbourg astronomical Data Center.
Tycho2 catalog from the ESO archive.